"startDT [UTC]","vpos","CH4 [ppm]","stdev(CH4) [ppm]","CO2 [ppm]","stdev(CO2) [ppm]","H2O [ppm]","stdev(H2O)","p_LGR [torr]","T_LGR [C]","mt1_LGR [us]","mt2_LGR [us]","T_ECpre [C]","T_EC1 [C]","T_EC2 [C]","p_inlet [hPa]","p_in [hPa]","p_out [hPa]","T_inlet [C]","RH_inlet [%]","dwpt_inlet [C]","T_vent [C]","RH_vent [%]","dwpt_vent [C]","flow_vent [l min-1]","flow_inlet [l min-1]","dwpt_sample [C]","T_room [C]"
2012-04-10 00:00:00,0.0,1.9211,0.0008,402.75,0.20,190.4,35.6,138.11,28.25,24.62,36.34,0.04,-272.73,-272.74,-50,553,-921,22.7,3.6,-22.8,22.9,3.7,-22.3,5.73,2.28,-25.1,28.0
2012-04-10 00:01:00,0.0,1.9221,0.0010,402.86,0.20,192.7,32.0,138.11,28.26,24.61,36.34,0.04,-272.73,-272.74,-50,553,-920,22.7,3.6,-22.7,22.9,3.7,-22.3,5.73,2.36,-25.1,27.8
2012-04-10 00:02:00,0.0,1.9218,0.0011,402.89,0.24,184.9,32.4,138.11,28.27,24.62,36.34,0.04,-272.73,-272.74,-51,553,-920,22.8,3.6,-22.7,22.9,3.7,-22.2,5.73,2.42,-25.2,27.9
2012-04-10 00:03:00,0.0,1.9222,0.0011,402.86,0.25,189.2,36.7,138.11,28.27,24.62,36.34,0.04,-272.73,-272.74,-50,553,-920,22.8,3.6,-22.8,22.9,3.7,-22.3,5.73,2.35,-25.2,28.1
2012-04-10 00:04:00,0.0,1.9227,0.0010,402.87,0.24,195.5,33.8,138.11,28.28,24.62,36.34,0.04,-272.74,-272.73,-50,553,-921,22.8,3.5,-22.9,22.9,3.6,-22.5,5.73,2.29,-25.1,28.2
2012-04-10 00:05:00,0.0,1.9229,0.0011,402.86,0.19,182.6,32.1,138.11,28.29,24.61,36.34,0.04,-272.73,-272.74,-51,553,-921,22.8,3.4,-23.1,22.9,3.5,-22.7,5.73,2.34,-25.1,28.3
2012-04-10 00:06:00,0.0,1.9227,0.0010,402.75,0.26,192.6,37.6,138.10,28.30,24.62,36.35,0.04,-272.74,-272.74,-51,553,-920,22.9,3.4,-23.2,22.9,3.5,-22.8,5.73,2.41,-25.0,28.3
2012-04-10 00:07:00,0.0,1.9226,0.0011,402.85,0.18,199.0,39.5,138.10,28.31,24.62,36.35,0.04,-272.73,-272.73,-50,553,-921,22.9,3.4,-23.2,23.0,3.5,-22.7,5.73,2.38,-25.0,28.4
2012-04-10 00:08:00,0.0,1.9224,0.0009,402.88,0.20,207.3,41.3,138.10,28.32,24.62,36.35,0.04,-272.73,-272.73,-50,554,-921,22.9,3.4,-23.2,23.1,3.5,-22.8,5.73,2.31,-24.9,28.3
2012-04-10 00:09:00,0.0,1.9222,0.0009,402.84,0.21,203.5,40.6,138.10,28.33,24.62,36.35,0.04,-272.74,-272.74,-51,554,-921,23.0,3.4,-23.3,23.1,3.5,-22.9,5.73,2.33,-24.9,27.5
2012-04-10 00:10:00,0.0,1.9229,0.0011,402.86,0.24,186.7,39.7,138.11,28.33,24.62,36.35,0.04,-272.73,-272.74,-50,554,-921,22.9,3.3,-23.4,23.0,3.4,-22.9,5.73,2.39,-25.1,26.9
2012-04-10 00:11:00,0.0,1.9230,0.0010,402.90,0.23,174.9,36.5,138.12,28.33,24.62,36.34,0.04,-272.74,-272.73,-51,554,-921,22.9,3.3,-23.4,23.0,3.4,-23.0,5.73,2.40,-25.3,26.5
2012-04-10 00:12:00,0.0,1.9228,0.0012,402.83,0.21,167.6,35.1,138.12,28.32,24.62,36.34,0.04,-272.74,-272.74,-51,554,-921,22.9,3.3,-23.5,22.9,3.4,-23.1,5.73,2.26,-25.4,26.2
2012-04-10 00:13:00,0.0,1.9222,0.0011,402.75,0.23,143.9,35.6,138.13,28.31,24.62,36.33,0.04,-272.74,-272.74,-51,554,-921,22.9,3.3,-23.5,22.9,3.4,-23.1,5.73,2.39,-25.6,26.0
2012-04-10 00:14:00,0.0,1.9210,0.0009,402.82,0.23,129.3,42.9,138.13,28.29,24.62,36.32,0.04,-272.74,-272.74,-51,554,-921,22.8,3.3,-23.5,22.8,3.4,-23.1,5.73,2.45,-25.7,25.9
2012-04-10 00:15:00,0.0,1.9205,0.0010,402.66,0.29,120.1,36.5,138.14,28.27,24.62,36.32,0.04,-272.74,-272.74,-51,554,-921,22.8,3.3,-23.5,22.8,3.4,-23.1,5.73,2.35,-25.8,25.7
2012-04-10 00:16:00,0.0,1.9199,0.0013,402.61,0.25,90.3,33.7,138.14,28.25,24.61,36.32,0.04,-272.74,-272.74,-51,554,-921,22.7,3.4,-23.4,22.7,3.5,-23.1,5.73,2.27,-26.0,25.6
2012-04-10 00:17:00,0.0,1.9192,0.0010,402.55,0.22,85.6,38.2,138.15,28.23,24.61,36.32,0.04,-272.74,-272.74,-51,553,-921,22.7,3.4,-23.2,22.6,3.5,-22.9,5.73,2.35,-26.1,25.4
2012-04-10 00:18:00,0.0,1.9184,0.0009,402.39,0.23,79.4,40.8,138.15,28.20,24.62,36.33,0.04,-272.74,-272.74,-51,553,-921,22.6,3.5,-22.9,22.6,3.6,-22.6,5.73,2.48,-26.2,26.0
2012-04-10 00:19:00,0.0,1.9181,0.0011,402.44,0.22,76.6,40.9,138.15,28.18,24.61,36.32,0.04,-272.73,-272.74,-51,553,-921,22.6,3.6,-22.6,22.6,3.7,-22.3,5.73,2.26,-26.2,26.4
2012-04-10 00:20:00,0.0,1.9176,0.0011,402.43,0.26,83.8,38.8,138.14,28.16,24.61,36.32,0.04,-272.74,-272.74,-52,553,-921,22.6,3.7,-22.4,22.6,3.8,-22.1,5.73,2.46,-26.1,26.7
2012-04-10 00:21:00,0.0,1.9175,0.0009,402.46,0.21,85.9,38.1,138.14,28.15,24.61,36.32,0.04,-272.74,-272.74,-51,553,-921,22.6,3.8,-22.2,22.6,3.9,-21.9,5.73,2.29,-26.0,26.9
2012-04-10 00:22:00,0.0,1.9182,0.0012,402.55,0.22,113.7,38.7,138.14,28.15,24.61,36.32,0.04,-272.74,-272.74,-51,552,-921,22.6,3.8,-22.0,22.7,3.9,-21.7,5.73,2.33,-25.9,27.1
2012-04-10 00:23:00,0.0,1.9185,0.0010,402.50,0.25,109.5,33.2,138.13,28.14,24.61,36.32,0.04,-272.74,-272.73,-51,552,-921,22.6,3.9,-21.9,22.7,4.0,-21.5,5.73,2.44,-25.9,27.2
2012-04-10 00:24:00,0.0,1.9186,0.0011,402.49,0.23,116.9,37.1,138.13,28.14,24.61,36.32,0.04,-272.74,-272.74,-51,552,-921,22.6,3.9,-21.8,22.7,4.0,-21.4,5.73,2.36,-25.8,27.3
2012-04-10 00:25:00,0.0,1.9187,0.0010,402.51,0.20,127.7,36.5,138.13,28.15,24.61,36.32,0.04,-272.74,-272.75,-51,552,-920,22.6,4.0,-21.6,22.7,4.1,-21.3,5.73,2.28,-25.7,27.4
2012-04-10 00:26:00,0.0,1.9191,0.0010,402.48,0.25,123.5,37.5,138.12,28.15,24.61,36.33,0.04,-272.74,-272.74,-51,552,-920,22.6,4.0,-21.5,22.7,4.1,-21.1,5.73,2.37,-25.7,27.5
2012-04-10 00:27:00,0.0,1.9201,0.0011,402.56,0.25,132.4,35.7,138.12,28.16,24.61,36.32,0.04,-272.74,-272.73,-51,553,-921,22.6,4.1,-21.3,22.7,4.2,-20.9,5.73,2.42,-25.6,27.5
2012-04-10 00:28:00,0.0,1.9204,0.0008,402.65,0.23,143.3,37.4,138.12,28.17,24.61,36.32,0.04,-272.73,-272.73,-51,552,-920,22.6,4.1,-21.1,22.8,4.2,-20.7,5.73,2.35,-25.5,27.6
2012-04-10 00:29:00,0.0,1.9208,0.0009,402.61,0.23,146.6,43.0,138.12,28.18,24.61,36.33,0.04,-272.74,-272.74,-51,552,-920,22.7,4.2,-20.9,22.8,4.3,-20.5,5.73,2.29,-25.5,27.6
2012-04-10 00:30:00,0.0,1.9207,0.0010,402.69,0.19,158.7,43.4,138.12,28.18,24.61,36.33,0.04,-272.74,-272.74,-51,553,-921,22.7,4.3,-20.7,22.8,4.4,-20.3,5.73,2.36,-25.5,27.6
2012-04-10 00:31:00,0.0,1.9210,0.0011,402.76,0.27,164.2,38.0,138.12,28.19,24.61,36.33,0.04,-272.74,-272.73,-50,552,-920,22.7,4.3,-20.6,22.8,4.4,-20.2,5.73,2.42,-25.4,27.7
2012-04-10 00:32:00,0.0,1.9205,0.0010,402.53,0.20,170.4,37.9,138.12,28.20,24.61,36.34,0.04,-272.73,-272.74,-51,553,-920,22.7,4.3,-20.5,22.8,4.4,-20.1,5.73,2.36,-25.3,27.7
2012-04-10 00:33:00,0.0,1.9209,0.0012,402.61,0.25,179.9,40.2,138.11,28.21,24.61,36.34,0.04,-272.74,-272.74,-51,553,-921,22.7,4.3,-20.5,22.9,4.5,-20.1,5.73,2.29,-25.3,27.8
2012-04-10 00:34:00,0.0,1.9204,0.0011,402.66,0.26,177.5,37.5,138.11,28.22,24.62,36.34,0.04,-272.74,-272.74,-50,552,-920,22.7,4.4,-20.5,22.9,4.5,-20.1,5.73,2.34,-25.3,27.8
2012-04-10 00:35:00,0.0,1.9205,0.0010,402.60,0.22,185.2,36.6,138.11,28.23,24.61,36.34,0.04,-272.73,-272.73,-51,553,-921,22.8,4.4,-20.4,22.9,4.5,-20.0,5.73,2.41,-25.2,27.8
2012-04-10 00:36:00,0.0,1.9228,0.0011,402.66,0.23,184.6,45.8,138.11,28.24,24.61,36.34,0.04,-272.74,-272.74,-51,553,-920,22.8,4.4,-20.3,22.9,4.5,-19.9,5.73,2.39,-25.2,27.8
2012-04-10 00:37:00,0.0,1.9208,0.0013,402.69,0.20,190.5,38.6,138.11,28.26,24.62,36.34,0.04,-272.73,-272.74,-50,553,-921,22.8,4.4,-20.3,22.9,4.5,-19.9,5.73,2.30,-25.1,27.9
2012-04-10 00:38:00,0.0,1.9213,0.0013,402.67,0.27,187.1,42.6,138.11,28.27,24.61,36.35,0.04,-272.74,-272.74,-50,553,-920,22.9,4.4,-20.3,23.0,4.5,-19.9,5.73,2.30,-25.1,28.0
2012-04-10 00:39:00,0.0,1.9216,0.0013,402.77,0.21,191.0,38.5,138.11,28.28,24.62,36.34,0.04,-272.74,-272.73,-51,553,-921,22.9,4.4,-20.3,23.0,4.5,-19.9,5.73,2.38,-25.0,28.0
2012-04-10 00:40:00,0.0,1.9212,0.0011,402.73,0.24,206.3,34.6,138.11,28.29,24.62,36.34,0.04,-272.74,-272.74,-51,554,-920,22.9,4.3,-20.4,23.0,4.4,-20.0,5.73,2.41,-25.0,28.0
2012-04-10 00:41:00,0.0,1.9211,0.0013,402.77,0.22,203.5,40.6,138.10,28.30,24.62,36.34,0.04,-272.74,-272.74,-50,553,-921,22.9,4.3,-20.5,23.1,4.4,-20.1,5.73,2.34,-24.9,28.0
2012-04-10 00:42:00,0.0,1.9216,0.0010,402.84,0.18,197.3,35.4,138.10,28.31,24.62,36.34,0.04,-272.74,-272.74,-50,554,-921,23.0,4.3,-20.4,23.1,4.4,-20.0,5.73,2.28,-24.9,28.1
2012-04-10 00:43:00,0.0,1.9216,0.0009,402.82,0.23,213.7,34.5,138.10,28.32,24.62,36.35,0.04,-272.74,-272.74,-51,554,-921,23.0,4.4,-20.2,23.1,4.5,-19.8,5.73,2.36,-24.8,28.2
2012-04-10 00:44:00,0.0,1.9222,0.0010,402.81,0.19,203.2,37.9,138.10,28.34,24.61,36.35,0.04,-272.74,-272.74,-50,554,-921,23.0,4.4,-20.1,23.2,4.6,-19.7,5.73,2.42,-24.8,28.2
2012-04-10 00:45:00,0.0,1.9223,0.0010,402.82,0.24,207.1,35.5,138.10,28.35,24.62,36.35,0.04,-272.73,-272.73,-51,555,-921,23.1,4.5,-19.9,23.2,4.6,-19.5,5.73,2.29,-24.8,27.7
2012-04-10 00:46:00,0.0,1.9221,0.0009,402.80,0.23,205.0,40.6,138.11,28.36,24.62,36.35,0.04,-272.74,-272.73,-51,554,-921,23.0,4.6,-19.7,23.1,4.7,-19.3,5.73,2.42,-24.9,27.2
2012-04-10 00:47:00,0.0,1.9224,0.0010,402.75,0.25,193.2,37.7,138.11,28.36,24.62,36.35,0.04,-272.74,-272.73,-51,555,-921,23.0,4.7,-19.5,23.1,4.8,-19.1,5.73,2.26,-25.1,26.8
2012-04-10 00:48:00,0.0,1.9220,0.0009,402.81,0.20,177.0,43.4,138.12,28.35,24.62,36.34,0.04,-272.74,-272.74,-51,555,-922,23.0,4.8,-19.2,23.0,4.9,-18.9,5.73,2.45,-25.2,26.5
2012-04-10 00:49:00,0.0,1.9212,0.0011,402.73,0.23,165.4,33.1,138.12,28.34,24.62,36.34,0.04,-272.73,-272.74,-51,554,-921,22.9,4.9,-18.9,23.0,5.0,-18.6,5.73,2.40,-25.4,26.2
2012-04-10 00:50:00,0.0,1.9203,0.0008,402.67,0.22,138.0,41.0,138.13,28.32,24.62,36.33,0.04,-272.74,-272.74,-51,555,-922,22.9,5.0,-18.7,22.9,5.2,-18.3,5.73,2.28,-25.6,25.8
2012-04-10 00:51:00,0.0,1.9202,0.0009,402.64,0.24,125.1,38.7,138.13,28.31,24.61,36.33,0.04,-272.73,-272.74,-51,554,-921,22.8,5.1,-18.4,22.9,5.3,-18.1,5.73,2.32,-25.7,25.8
2012-04-10 00:52:00,0.0,1.9187,0.0008,402.63,0.24,118.8,35.9,138.14,28.29,24.61,36.32,0.04,-272.74,-272.73,-51,554,-921,22.8,5.3,-18.2,22.8,5.4,-17.8,5.73,2.43,-25.9,25.6
2012-04-10 00:53:00,0.0,1.9186,0.0010,402.59,0.22,90.7,32.8,138.14,28.26,24.61,36.32,0.04,-272.74,-272.74,-51,554,-921,22.8,5.4,-17.9,22.7,5.6,-17.6,5.73,2.43,-26.0,25.4
2012-04-10 00:54:00,0.0,1.9177,0.0010,402.60,0.26,86.7,43.9,138.15,28.24,24.61,36.32,0.04,-272.74,-272.74,-51,554,-922,22.7,5.5,-17.8,22.7,5.7,-17.4,5.73,2.30,-26.1,25.6
2012-04-10 00:55:00,0.0,1.9171,0.0009,402.52,0.24,75.5,39.2,138.15,28.21,24.61,36.32,0.04,-272.73,-272.73,-51,553,-921,22.7,5.6,-17.7,22.6,5.7,-17.3,5.73,2.32,-26.1,26.1
2012-04-10 00:56:00,0.0,1.9170,0.0009,402.57,0.22,81.8,35.8,138.14,28.20,24.62,36.31,0.04,-272.74,-272.74,-51,553,-921,22.7,5.6,-17.5,22.7,5.8,-17.1,5.73,2.41,-26.1,26.5
2012-04-10 00:57:00,0.0,1.9172,0.0009,402.50,0.22,105.2,35.7,138.14,28.19,24.61,36.32,0.04,-272.74,-272.74,-51,553,-921,22.7,5.7,-17.3,22.7,5.9,-17.0,5.73,2.37,-26.0,26.8
2012-04-10 00:58:00,0.0,1.9170,0.0010,402.45,0.21,98.4,38.9,138.13,28.18,24.61,36.32,0.04,-272.74,-272.74,-51,553,-921,22.7,5.8,-17.2,22.7,6.0,-16.8,5.73,2.28,-25.9,27.0
2012-04-10 00:59:00,0.0,1.9170,0.0011,402.51,0.19,112.5,38.2,138.13,28.18,24.61,36.32,0.04,-272.74,-272.74,-51,553,-921,22.7,5.8,-17.1,22.7,6.0,-16.7,5.73,2.41,-25.8,27.1
2012-04-10 01:00:00,0.0,1.9171,0.0009,402.43,0.20,131.1,37.4,138.13,28.18,24.61,36.33,0.04,-272.74,-272.73,-51,553,-921,22.7,5.9,-17.0,22.7,6.0,-16.6,5.73,2.40,-25.7,27.2
2012-04-10 01:01:00,0.0,1.9174,0.0010,402.43,0.22,124.7,41.7,138.13,28.18,24.61,36.33,0.04,-272.74,-272.74,-51,553,-920,22.7,5.9,-17.0,22.8,6.0,-16.6,5.73,2.29,-25.6,27.3
2012-04-10 01:02:00,0.0,1.9180,0.0008,402.49,0.21,135.3,45.8,138.12,28.19,24.61,36.33,0.04,-272.74,-272.73,-51,553,-921,22.7,5.9,-17.0,22.8,6.0,-16.6,5.73,2.33,-25.6,27.4
2012-04-10 01:03:00,0.0,1.9185,0.0010,402.58,0.21,149.7,33.4,138.12,28.19,24.61,36.33,0.04,-272.73,-272.74,-51,553,-920,22.7,5.8,-17.1,22.8,6.0,-16.7,5.73,2.42,-25.5,27.5
2012-04-10 01:04:00,0.0,1.9191,0.0010,402.62,0.23,145.1,40.5,138.12,28.20,24.61,36.33,0.04,-272.73,-272.73,-51,553,-920,22.7,5.8,-17.2,22.8,6.0,-16.8,5.73,2.39,-25.4,27.5
2012-04-10 01:05:00,0.0,1.9195,0.0008,402.67,0.20,157.6,35.6,138.12,28.21,24.61,36.33,0.04,-272.73,-272.73,-51,553,-920,22.7,5.7,-17.2,22.8,5.9,-16.8,5.73,2.29,-25.4,27.6
2012-04-10 01:06:00,0.0,1.9194,0.0009,402.70,0.24,165.8,30.0,138.12,28.22,24.62,36.33,0.04,-272.74,-272.74,-51,553,-921,22.7,5.7,-17.3,22.9,5.9,-16.8,5.73,2.33,-25.3,27.6
2012-04-10 01:07:00,0.0,1.9197,0.0009,402.68,0.20,164.4,30.5,138.11,28.23,24.62,36.33,0.04,-272.74,-272.74,-50,553,-920,22.7,5.6,-17.5,22.9,5.8,-17.0,5.73,2.41,-25.2,27.6
2012-04-10 01:08:00,0.0,1.9202,0.0009,402.76,0.25,181.8,34.0,138.11,28.24,24.61,36.33,0.04,-272.74,-272.74,-51,553,-920,22.8,5.5,-17.6,22.9,5.7,-17.1,5.73,2.39,-25.2,27.6
2012-04-10 01:09:00,0.0,1.9202,0.0010,402.75,0.24,185.2,38.8,138.11,28.25,24.61,36.33,0.04,-272.74,-272.74,-51,553,-921,22.8,5.5,-17.6,22.9,5.7,-17.1,5.73,2.30,-25.1,27.7
2012-04-10 01:10:00,0.0,1.9204,0.0009,402.70,0.24,193.8,36.5,138.11,28.26,24.61,36.34,0.04,-272.74,-272.74,-50,553,-920,22.8,5.5,-17.7,22.9,5.7,-17.2,5.73,2.30,-25.0,27.7
2012-04-10 01:11:00,0.0,1.9207,0.0010,402.65,0.26,198.0,34.6,138.11,28.27,24.62,36.34,0.04,-272.73,-272.74,-51,553,-921,22.9,5.5,-17.7,23.0,5.6,-17.3,5.73,2.39,-25.0,27.7
2012-04-10 01:12:00,0.0,1.9206,0.0010,402.74,0.21,196.9,37.8,138.11,28.28,24.62,36.34,0.04,-272.74,-272.74,-51,553,-920,22.9,5.4,-17.8,23.0,5.6,-17.3,5.73,2.41,-24.9,27.7
2012-04-10 01:13:00,0.0,1.9206,0.0008,402.71,0.25,206.6,35.0,138.11,28.30,24.62,36.35,0.04,-272.74,-272.74,-51,554,-920,22.9,5.3,-18.1,23.0,5.5,-17.6,5.73,2.33,-24.9,27.8
2012-04-10 01:14:00,0.0,1.9213,0.0009,402.68,0.30,200.9,37.6,138.10,28.31,24.61,36.35,0.04,-272.74,-272.74,-50,553,-920,22.9,5.1,-18.5,23.0,5.3,-18.0,5.73,2.29,-24.8,27.8
2012-04-10 01:15:00,0.0,1.9214,0.0009,402.79,0.25,212.6,35.9,138.10,28.32,24.61,36.34,0.04,-272.73,-272.73,-51,554,-920,22.9,5.0,-18.6,23.1,5.2,-18.2,5.73,2.38,-24.8,27.9
2012-04-10 01:16:00,0.0,1.9214,0.0010,402.74,0.25,201.2,33.2,138.10,28.33,24.61,36.35,0.04,-272.74,-272.74,-51,554,-920,23.0,4.9,-18.9,23.1,5.1,-18.4,5.73,2.41,-24.7,28.0
2012-04-10 01:17:00,0.0,1.9219,0.0009,402.71,0.26,205.9,33.3,138.10,28.34,24.61,36.36,0.04,-272.74,-272.74,-50,554,-921,23.0,4.8,-19.1,23.1,5.0,-18.7,5.73,2.34,-24.6,28.0
2012-04-10 01:18:00,0.0,1.9217,0.0010,402.86,0.19,232.6,36.8,138.10,28.36,24.62,36.35,0.04,-272.74,-272.73,-51,554,-921,23.0,4.7,-19.3,23.1,4.9,-18.9,5.73,2.27,-24.6,27.8
2012-04-10 01:19:00,0.0,1.9218,0.0009,402.70,0.24,208.4,30.2,138.10,28.37,24.62,36.35,0.04,-272.73,-272.74,-50,554,-921,23.0,4.7,-19.4,23.1,4.9,-18.9,5.73,2.47,-24.7,27.3
2012-04-10 01:20:00,0.0,1.9222,0.0009,402.78,0.22,210.5,38.1,138.11,28.37,24.61,36.35,0.04,-272.73,-272.74,-51,555,-921,23.0,4.7,-19.3,23.1,4.9,-19.0,5.73,2.25,-24.8,27.0
2012-04-10 01:21:00,0.0,1.9214,0.0010,402.83,0.28,188.2,32.9,138.12,28.37,24.62,36.34,0.04,-272.73,-272.74,-51,555,-921,23.0,4.7,-19.5,23.1,4.8,-19.1,5.73,2.40,-24.9,26.5
2012-04-10 01:22:00,0.0,1.9214,0.0007,402.74,0.24,175.1,32.7,138.12,28.36,24.61,36.34,0.04,-272.73,-272.74,-51,555,-921,22.9,4.6,-19.6,23.0,4.8,-19.2,5.73,2.43,-25.1,26.3
2012-04-10 01:23:00,0.0,1.9209,0.0009,402.74,0.22,168.3,35.0,138.13,28.35,24.61,36.33,0.04,-272.74,-272.74,-51,554,-921,22.9,4.6,-19.8,22.9,4.7,-19.4,5.73,2.29,-25.2,26.1
2012-04-10 01:24:00,0.0,1.9200,0.0011,402.65,0.23,156.7,32.3,138.13,28.33,24.62,36.34,0.04,-272.74,-272.74,-51,554,-921,22.9,4.5,-19.9,22.9,4.7,-19.5,5.73,2.30,-25.3,25.9
2012-04-10 01:25:00,0.0,1.9187,0.0010,402.68,0.24,137.9,34.9,138.14,28.31,24.61,36.32,0.04,-272.74,-272.74,-51,554,-921,22.8,4.5,-20.1,22.8,4.6,-19.8,5.73,2.43,-25.5,25.6
2012-04-10 01:26:00,0.0,1.9182,0.0011,402.60,0.29,112.8,32.6,138.14,28.29,24.61,36.32,0.04,-272.74,-272.74,-51,554,-921,22.7,4.4,-20.4,22.8,4.5,-20.1,5.73,2.43,-25.6,25.6
2012-04-10 01:27:00,0.0,1.9179,0.0009,402.56,0.24,103.1,37.5,138.14,28.27,24.61,36.32,0.04,-272.74,-272.73,-51,554,-921,22.7,4.2,-20.8,22.7,4.4,-20.4,5.73,2.33,-25.6,25.4
2012-04-10 01:28:00,0.0,1.9170,0.0009,402.49,0.22,103.1,39.8,138.15,28.24,24.61,36.32,0.04,-272.73,-272.74,-51,553,-921,22.7,4.1,-21.1,22.7,4.3,-20.7,5.73,2.27,-25.7,25.9
2012-04-10 01:29:00,0.0,1.9168,0.0010,402.44,0.20,107.8,36.7,138.14,28.22,24.61,36.32,0.04,-272.74,-272.73,-52,553,-921,22.7,4.0,-21.4,22.6,4.2,-21.0,5.73,2.48,-25.7,26.3
2012-04-10 01:30:00,0.0,1.9173,0.0011,402.50,0.21,107.7,31.7,138.14,28.21,24.61,36.32,0.04,-272.73,-272.73,-51,553,-921,22.7,4.0,-21.5,22.7,4.1,-21.1,5.73,2.26,-25.7,26.6
2012-04-10 01:31:00,0.0,1.9169,0.0010,402.40,0.25,115.5,31.3,138.14,28.20,24.61,36.33,0.04,-272.73,-272.74,-51,553,-921,22.7,4.0,-21.5,22.7,4.1,-21.2,5.73,2.40,-25.6,26.9
2012-04-10 01:32:00,0.0,1.9172,0.0011,402.33,0.24,131.7,40.5,138.13,28.19,24.61,36.33,0.04,-272.73,-272.73,-51,552,-920,22.7,4.1,-21.3,22.7,4.2,-20.9,5.73,2.41,-25.5,27.0
2012-04-10 01:33:00,0.0,1.9181,0.0011,402.52,0.21,142.2,41.1,138.13,28.19,24.61,36.32,0.04,-272.74,-272.74,-51,553,-921,22.7,4.1,-21.2,22.7,4.2,-20.8,5.73,2.28,-25.4,27.2
2012-04-10 01:34:00,0.0,1.9176,0.0010,402.52,0.20,148.8,47.4,138.13,28.19,24.62,36.33,0.04,-272.74,-272.74,-51,553,-920,22.7,4.2,-21.1,22.8,4.3,-20.7,5.73,2.33,-25.3,27.3
2012-04-10 01:35:00,0.0,1.9188,0.0011,402.59,0.20,159.5,40.1,138.12,28.20,24.61,36.33,0.04,-272.73,-272.74,-51,553,-920,22.7,4.2,-20.8,22.8,4.4,-20.4,5.73,2.42,-25.2,27.4
2012-04-10 01:36:00,0.0,1.9198,0.0009,402.54,0.24,174.3,38.1,138.12,28.20,24.62,36.33,0.04,-272.73,-272.73,-51,552,-920,22.7,4.3,-20.6,22.8,4.4,-20.3,5.73,2.37,-25.1,27.4
2012-04-10 01:37:00,0.0,1.9199,0.0010,402.64,0.23,179.6,38.8,138.12,28.21,24.61,36.33,0.04,-272.73,-272.74,-51,553,-920,22.7,4.4,-20.4,22.8,4.5,-20.1,5.73,2.29,-25.1,27.5
2012-04-10 01:38:00,0.0,1.9205,0.0011,402.61,0.21,186.8,35.5,138.12,28.22,24.62,36.33,0.04,-272.74,-272.73,-51,553,-920,22.7,4.4,-20.3,22.8,4.5,-20.0,5.73,2.33,-25.0,27.6
2012-04-10 01:39:00,0.0,1.9205,0.0010,402.59,0.20,192.9,34.1,138.11,28.23,24.61,36.34,0.04,-272.74,-272.74,-50,553,-920,22.7,4.4,-20.3,22.9,4.6,-19.8,5.73,2.42,-24.9,27.6
2012-04-10 01:40:00,0.0,1.9226,0.0011,402.69,0.25,194.9,43.6,138.11,28.24,24.61,36.34,0.04,-272.74,-272.74,-51,553,-920,22.8,4.4,-20.2,22.9,4.6,-19.8,5.73,2.38,-24.9,27.7
2012-04-10 01:41:00,0.0,1.9228,0.0009,402.65,0.24,187.9,34.3,138.11,28.25,24.61,36.34,0.04,-272.74,-272.74,-51,553,-920,22.8,4.4,-20.3,22.9,4.5,-19.9,5.73,2.29,-24.8,27.7
2012-04-10 01:42:00,0.0,1.9219,0.0012,402.78,0.22,213.4,46.5,138.11,28.27,24.61,36.34,0.04,-272.73,-272.74,-51,553,-921,22.8,4.4,-20.2,22.9,4.5,-19.8,5.73,2.32,-24.7,27.7
2012-04-10 01:43:00,0.0,1.9234,0.0010,402.72,0.24,211.8,35.9,138.11,28.28,24.61,36.34,0.04,-272.74,-272.73,-50,553,-920,22.9,4.4,-20.2,23.0,4.6,-19.8,5.73,2.40,-24.7,27.8
2012-04-10 01:44:00,0.0,1.9251,0.0012,402.82,0.21,213.5,34.9,138.11,28.29,24.62,36.34,0.04,-272.74,-272.74,-51,553,-921,22.9,4.4,-20.2,23.0,4.5,-19.8,5.73,2.40,-24.6,27.8
2012-04-10 01:45:00,0.0,1.9269,0.0011,402.85,0.21,225.4,31.9,138.11,28.30,24.62,36.34,0.04,-272.74,-272.73,-51,553,-920,22.9,4.4,-20.2,23.0,4.5,-19.8,5.73,2.31,-24.5,27.9
2012-04-10 01:46:00,0.0,1.9290,0.0017,402.93,0.23,225.7,32.7,138.10,28.32,24.62,36.34,0.04,-272.74,-272.74,-50,553,-920,22.9,4.4,-20.2,23.0,4.5,-19.8,5.73,2.30,-24.5,27.9
2012-04-10 01:47:00,0.0,1.9328,0.0019,402.97,0.21,232.6,34.2,138.10,28.33,24.61,36.34,0.04,-272.74,-272.74,-51,554,-921,23.0,4.4,-20.3,23.1,4.5,-19.9,5.73,2.38,-24.4,27.9
2012-04-10 01:48:00,0.0,1.9346,0.0016,403.02,0.26,237.0,34.3,138.10,28.34,24.61,36.35,0.04,-272.74,-272.74,-51,553,-920,23.0,4.3,-20.4,23.1,4.4,-20.0,5.73,2.41,-24.4,27.9
2012-04-10 01:49:00,0.0,1.9361,0.0016,403.08,0.26,233.7,35.6,138.10,28.36,24.62,36.35,0.04,-272.73,-272.74,-51,554,-921,23.0,4.2,-20.6,23.1,4.4,-20.1,5.73,2.32,-24.3,28.0
2012-04-10 01:50:00,0.0,1.9325,0.0020,403.09,0.23,243.6,32.6,138.10,28.37,24.62,36.35,0.04,-272.74,-272.74,-51,554,-921,23.1,4.2,-20.6,23.2,4.4,-20.1,5.73,2.28,-24.3,27.7
2012-04-10 01:51:00,0.0,1.9310,0.0027,403.02,0.23,236.3,33.0,138.10,28.38,24.62,36.35,0.04,-272.74,-272.74,-51,554,-921,23.1,4.2,-20.6,23.1,4.4,-20.2,5.73,2.46,-24.3,27.2
2012-04-10 01:52:00,0.0,1.9286,0.0029,402.86,0.22,232.5,35.0,138.11,28.38,24.62,36.35,0.04,-272.73,-272.73,-51,555,-921,23.1,4.2,-20.7,23.1,4.3,-20.3,5.73,2.27,-24.5,26.7
2012-04-10 01:53:00,0.0,1.9237,0.0010,402.83,0.22,211.8,30.2,138.11,28.38,24.62,36.35,0.04,-272.73,-272.74,-51,555,-921,23.0,4.2,-20.8,23.1,4.3,-20.4,5.73,2.36,-24.6,26.5
2012-04-10 01:54:00,0.0,1.9233,0.0009,402.84,0.24,197.2,33.2,138.12,28.37,24.62,36.34,0.04,-272.74,-272.73,-51,554,-921,23.0,4.2,-20.8,23.0,4.3,-20.4,5.73,2.45,-24.7,26.2
2012-04-10 01:55:00,0.0,1.9223,0.0010,402.86,0.24,192.0,34.2,138.12,28.36,24.62,36.33,0.04,-272.74,-272.74,-52,555,-921,23.0,4.2,-20.8,23.0,4.3,-20.4,5.73,2.30,-24.9,26.1
2012-04-10 01:56:00,0.0,1.9216,0.0011,402.77,0.20,177.2,42.4,138.13,28.35,24.62,36.34,0.04,-272.73,-272.73,-51,554,-921,22.9,4.1,-20.9,22.9,4.3,-20.5,5.73,2.29,-25.0,25.8
2012-04-10 01:57:00,0.0,1.9203,0.0010,402.74,0.20,162.9,35.6,138.13,28.33,24.62,36.33,0.04,-272.74,-272.74,-51,554,-921,22.9,4.1,-21.1,22.9,4.2,-20.8,5.73,2.43,-25.1,25.5
2012-04-10 01:58:00,0.0,1.9205,0.0010,402.76,0.22,147.9,32.6,138.14,28.31,24.61,36.32,0.04,-272.74,-272.74,-51,554,-921,22.8,4.0,-21.4,22.8,4.1,-21.0,5.73,2.42,-25.2,25.5
2012-04-10 01:59:00,0.0,1.9204,0.0010,402.70,0.26,136.4,34.1,138.14,28.29,24.61,36.32,0.04,-272.73,-272.73,-52,554,-921,22.8,4.0,-21.4,22.8,4.1,-21.0,5.73,2.30,-25.3,25.4
2012-04-10 02:00:00,0.0,1.9187,0.0012,402.68,0.22,129.0,36.6,138.14,28.27,24.62,36.31,0.04,-272.74,-272.73,-52,554,-921,22.7,4.0,-21.5,22.7,4.1,-21.1,5.73,2.29,-25.4,25.8
2012-04-10 02:01:00,0.0,1.9190,0.0012,402.58,0.26,109.3,39.4,138.14,28.25,24.61,36.32,0.04,-272.74,-272.74,-51,554,-921,22.7,3.9,-21.8,22.7,4.0,-21.4,5.73,2.47,-25.4,26.3
2012-04-10 02:02:00,0.0,1.9193,0.0009,402.52,0.24,133.8,34.5,138.14,28.23,24.61,36.33,0.04,-272.73,-272.74,-52,553,-921,22.7,3.8,-22.1,22.7,3.9,-21.7,5.73,2.27,-25.3,26.6
2012-04-10 02:03:00,0.0,1.9193,0.0010,402.57,0.24,144.7,37.9,138.14,28.22,24.61,36.32,0.04,-272.73,-272.74,-51,553,-921,22.8,3.7,-22.3,22.8,3.8,-21.9,5.73,2.36,-25.2,26.9
2012-04-10 02:04:00,0.0,1.9187,0.0011,402.61,0.24,148.6,38.7,138.13,28.22,24.62,36.32,0.04,-272.74,-272.74,-52,553,-921,22.8,3.7,-22.3,22.8,3.8,-21.9,5.73,2.43,-25.1,27.1
2012-04-10 02:05:00,0.0,1.9197,0.0009,402.59,0.23,155.1,32.6,138.13,28.22,24.61,36.33,0.04,-272.74,-272.74,-51,553,-921,22.8,3.7,-22.4,22.8,3.8,-22.0,5.73,2.32,-25.1,27.2
2012-04-10 02:06:00,0.0,1.9207,0.0011,402.69,0.24,168.6,35.1,138.12,28.23,24.61,36.33,0.04,-272.74,-272.73,-51,553,-921,22.8,3.6,-22.5,22.9,3.8,-22.1,5.73,2.30,-25.0,27.3
2012-04-10 02:07:00,0.0,1.9208,0.0009,402.51,0.24,179.4,37.6,138.12,28.23,24.61,36.34,0.04,-272.74,-272.74,-51,553,-920,22.8,3.7,-22.4,22.9,3.8,-22.0,5.73,2.39,-24.9,27.4
2012-04-10 02:08:00,0.0,1.9203,0.0008,402.59,0.24,187.8,29.9,138.12,28.24,24.61,36.34,0.04,-272.74,-272.74,-51,553,-921,22.9,3.7,-22.3,22.9,3.8,-21.9,5.73,2.41,-24.8,27.5
2012-04-10 02:09:00,0.0,1.9200,0.0010,402.59,0.21,198.2,39.5,138.12,28.25,24.61,36.34,0.04,-272.73,-272.73,-51,553,-921,22.9,3.7,-22.3,22.9,3.8,-21.9,5.73,2.33,-24.8,27.6
2012-04-10 02:10:00,0.0,1.9205,0.0011,402.59,0.25,208.0,40.2,138.11,28.26,24.61,36.34,0.04,-272.74,-272.73,-51,553,-920,22.9,3.7,-22.3,22.9,3.8,-21.9,5.73,2.29,-24.7,27.7
2012-04-10 02:11:00,0.0,1.9205,0.0011,402.62,0.24,202.1,41.2,138.11,28.27,24.62,36.34,0.04,-272.74,-272.73,-51,553,-921,22.9,3.6,-22.4,23.0,3.8,-21.9,5.73,2.36,-24.6,27.7
2012-04-10 02:12:00,0.0,1.9213,0.0009,402.71,0.32,216.6,40.9,138.11,28.28,24.61,36.34,0.04,-272.74,-272.73,-51,553,-921,22.9,3.6,-22.3,23.0,3.8,-21.9,5.73,2.41,-24.6,27.8
2012-04-10 02:13:00,0.0,1.9204,0.0011,402.71,0.20,219.1,37.2,138.11,28.29,24.61,36.34,0.04,-272.74,-272.73,-51,553,-920,23.0,3.7,-22.2,23.0,3.8,-21.9,5.73,2.37,-24.5,27.9
2012-04-10 02:14:00,0.0,1.9196,0.0009,402.71,0.27,228.4,30.7,138.11,28.31,24.62,36.35,0.04,-272.74,-272.73,-51,554,-921,23.0,3.7,-22.1,23.1,3.8,-21.7,5.73,2.30,-24.5,27.9
2012-04-10 02:15:00,0.0,1.9203,0.0011,402.73,0.21,223.0,36.3,138.10,28.32,24.61,36.34,0.04,-272.74,-272.74,-51,553,-921,23.0,3.7,-22.1,23.1,3.8,-21.7,5.73,2.31,-24.4,27.9
2012-04-10 02:16:00,0.0,1.9198,0.0008,402.74,0.30,231.1,40.6,138.10,28.34,24.62,36.35,0.04,-272.73,-272.74,-51,553,-920,23.0,3.7,-22.1,23.1,3.8,-21.7,5.73,2.39,-24.4,28.0
2012-04-10 02:17:00,0.0,1.9205,0.0011,402.74,0.23,247.4,36.4,138.10,28.35,24.62,36.35,0.04,-272.74,-272.73,-51,554,-921,23.1,3.7,-22.2,23.1,3.8,-21.7,5.73,2.41,-24.3,28.1